• Join FlightAware (Why Join?)
  • Login
  • US Flag 
05:32AM EDT


 

Airport Tracker/Info


-or-


 

Live Flight TrackerFlight Track Log ✈ RPA3477 ✈ 11-Jul-2013 ✈ KDCA - KBNA

Flight Track Log - Related Links

Times and Time Zones

All times are in EDT time to prevent confusion due to time zone crossing. See the RPA3477 flight status page for this flight to view local times or setup timezone preferences in your user account.

Time Position Orientation Groundspeed Altitude Reporting Facility
EDT Latitude Longitude Course Direction KTS MPH feet Rate Location/Type
08:35PM 38.8000 -77.0333 233° Southwest 189 217 1,900  Level Potomac TRACON
08:36PM 38.7333 -77.0500 191° South 289 333 4,400 3,000 Climbing Potomac TRACON
08:37PM 38.7167 -77.1333 256° West 287 330 7,600 3,480 Climbing Potomac TRACON
08:38PM 38.7333 -77.2500 280° West 301 346 11,400 3,120 Climbing Potomac TRACON
08:39PM 38.7667 -77.3333 297° West 311 358 14,200 1,800 Climbing Potomac TRACON
08:40PM 38.5426 -77.6457 233° Southwest  Level FlightAware Approximate
08:40PM 38.7167 -77.4167 232° Southwest 304 350 15,000  Level Potomac TRACON
08:42PM 38.6264 -77.5581 231° Southwest 320 368 18,200 1,980 Climbing Washington Center
08:43PM 38.5600 -77.6519 228° Southwest 339 390 20,500 2,280 Climbing Washington Center
08:43PM 38.4958 -77.7483 230° Southwest 350 403 22,800 1,860 Climbing Washington Center
08:45PM 38.4333 -77.8631 235° Southwest 361 415 24,300 1,560 Climbing Washington Center
08:45PM 38.3769 -77.9753 237° Southwest 373 429 26,000 1,320 Climbing Washington Center
08:47PM 38.3183 -78.0900 237° Southwest 384 442 27,000 480 Climbing Washington Center
08:48PM 38.2597 -78.1992 236° Southwest 384 442 27,000 300 Level Washington Center
08:49PM 38.2008 -78.3106 236° Southwest 384 442 27,600 1,140 Climbing Washington Center
08:49PM 38.1397 -78.4244 236° Southwest 389 448 29,300 1,380 Climbing Washington Center
08:50PM 38.1019 -78.5314 246° West 380 437 30,400 900 Climbing Washington Center
08:52PM 38.0592 -78.6561 246° West 379 436 31,200 1,080 Climbing Washington Center
08:53PM 38.0139 -78.7861 246° West 394 453 32,600 1,680 Climbing Washington Center
08:53PM 37.9686 -78.9239 247° West 394 453 34,600 1,320 Climbing Washington Center
08:54PM 37.9275 -79.0431 246° West 386 444 35,300 720 Climbing Washington Center
08:55PM 37.8803 -79.1594 243° Southwest 380 437 36,100 780 Climbing Washington Center
08:56PM 37.8228 -79.2722 237° Southwest 380 437 36,900 840 Climbing Washington Center
08:58PM 37.7781 -79.3675 239° Southwest 369 425 37,900 540 Climbing Washington Center
08:58PM 37.7244 -79.4750 238° Southwest 369 425 38,000  Climbing Washington Center
08:59PM 37.6600 -79.5950 236° Southwest 375 432 38,000  Level Washington Center
09:01PM 37.6044 -79.7022 237° Southwest 375 432 38,000  Level Washington Center
09:03PM 37.4847 -79.9411 238° Southwest 373 429 38,000  Level Atlanta Center
09:04PM 37.4242 -80.0592 237° Southwest 380 437 38,000  Level Atlanta Center
09:05PM 37.3692 -80.1639 237° Southwest 380 437 38,000  Level Atlanta Center
09:06PM 37.3142 -80.2708 237° Southwest 380 437 38,000  Level Atlanta Center
09:07PM 37.2589 -80.3778 237° Southwest 380 437 38,000  Level Atlanta Center
09:08PM 37.2078 -80.4767 237° Southwest 380 437 38,000  Level Atlanta Center
09:09PM 37.1525 -80.5858 238° Southwest 380 437 38,000  Level Atlanta Center
09:10PM 37.0969 -80.6925 237° Southwest 380 437 38,000  Level Atlanta Center
09:11PM 37.0522 -80.8089 244° Southwest 380 437 38,000  Level Atlanta Center
09:12PM 37.0053 -80.9356 245° Southwest 375 432 38,000  Level Atlanta Center
09:13PM 36.9625 -81.0539 246° West 370 426 38,000  Level Atlanta Center
09:14PM 36.9214 -81.1697 246° West 370 426 38,000  Level Atlanta Center
09:15PM 36.8822 -81.2775 246° West 370 426 38,000  Level Atlanta Center
09:16PM 36.8411 -81.3958 247° West 370 426 38,000  Level Atlanta Center
09:17PM 36.7975 -81.5114 245° Southwest 370 426 38,000  Level Atlanta Center
09:18PM 36.7544 -81.6447 248° West 376 433 38,000  Level Atlanta Center
09:19PM 36.7086 -81.7653 245° Southwest 383 441 38,000  Level Atlanta Center
09:20PM 36.6650 -81.8881 246° West 383 441 38,000  Level Atlanta Center
09:21PM 36.6192 -82.0083 245° Southwest 383 441 38,000  Level Atlanta Center
09:22PM 36.5753 -82.1283 246° West 383 441 38,000  Level Atlanta Center
09:23PM 36.5311 -82.2508 246° West 383 441 38,000  Level Atlanta Center
09:24PM 36.4850 -82.3706 244° Southwest 389 448 38,000 -840 Level Atlanta Center
09:25PM 36.4386 -82.4931 245° Southwest 389 448 36,400 -1,680 Descending Atlanta Center
09:26PM 36.3961 -82.6097 246° West 389 448 34,700 -1,200 Descending Atlanta Center
09:27PM 36.3475 -82.7344 244° Southwest 389 448 34,000 -360 Descending Atlanta Center
09:28PM 36.3028 -82.8561 246° West 394 453 34,000  Level Atlanta Center
09:29PM 36.2561 -82.9806 245° Southwest 394 453 34,000 -120 Level Atlanta Center
09:30PM 36.2069 -83.1072 244° Southwest 404 465 33,800 -780 Descending Atlanta Center
09:31PM 36.1703 -83.2233 249° West 404 465 32,500 -900 Descending Atlanta Center
09:32PM 36.1397 -83.3600 255° West 404 465 32,000 -300 Descending Atlanta Center
09:33PM 36.1114 -83.4939 255° West 404 465 32,000  Level Atlanta Center
09:34PM 36.0806 -83.6353 255° West 404 465 32,000  Level Atlanta Center
09:35PM 36.0517 -83.7664 255° West 399 459 32,000 -480 Level Atlanta Center
09:36PM 36.0228 -83.9000 255° West 394 453 31,100 -1,260 Descending Atlanta Center
09:37PM 35.9936 -84.0311 255° West 399 459 29,500 -1,560 Descending Atlanta Center
09:38PM 35.9644 -84.1567 254° West 394 453 28,000 -1,740 Descending Atlanta Center
09:39PM 35.9350 -84.2850 254° West 394 453 26,100 -1,980 Descending Atlanta Center
09:40PM 35.9075 -84.4053 254° West 387 445 24,100 -1,560 Descending Atlanta Center
09:41PM 35.8800 -84.5256 254° West 376 433 23,000 -600 Descending Atlanta Center
09:42PM 35.8544 -84.6331 254° West 371 427 23,000  Level Atlanta Center
09:43PM 35.8267 -84.7508 254° West 371 427 23,000  Level Atlanta Center
09:44PM 35.7989 -84.8733 254° West 366 421 23,000 -780 Level Atlanta Center
09:47PM 35.7150 -85.2358 254° West 366 421 20,000 -780 Descending Memphis Center
09:48PM 35.6886 -85.3525 254° West 361 415 20,000  Level Memphis Center
09:49PM 35.6828 -85.4703 267° West 356 410 20,000  Level Memphis Center
09:50PM 35.6792 -85.5906 268° West 356 410 20,000 -480 Level Memphis Center
09:51PM 35.6756 -85.7161 268° West 356 410 19,100 -1,620 Descending Memphis Center
09:52PM 35.6725 -85.8594 269° West 377 434 16,800 -2,160 Descending Memphis Center
09:53PM 35.6667 -85.9875 267° West 383 441 14,800 -1,920 Descending Memphis Center
09:54PM 35.6869 -86.0936 283° West 363 418 13,000 -1,920 Descending Memphis Center
09:55PM 35.7547 -86.1847 313° West 350 403 11,000 -1,800 Descending Memphis Center
09:56PM 35.7950 -86.2672 301° West 312 359 9,500 -1,980 Descending Memphis Center
09:57PM 35.8250 -86.3553 293° West 285 328 7,100 -1,680 Descending Memphis Center
09:58PM 35.8483 -86.4336 290° West 258 297 6,200 -600 Descending Memphis Center
09:59PM 35.8592 -86.5100 280° West 234 269 6,000 -540 Descending Memphis Center
10:00PM 35.8700 -86.5967 279° West 234 269 5,200 -1,020 Descending Memphis Center
10:01PM 35.8828 -86.6703 282° West 234 269 4,000 -840 Descending Memphis Center
10:02PM 35.9342 -86.7142 325° Northwest 214 246 3,600 -660 Descending Memphis Center
10:03PM 35.9847 -86.7400 338° Northwest 203 234 2,700 -660 Descending Memphis Center
10:04PM 36.0219 -86.7256 17° North 156 180 2,300 -420 Descending Memphis Center